Location: Unspecified
(0.0000°N, 0.0000°E)
Time: 19:03:57
(UTC+00:00)

Vanguard 3 - Pass Details

Date: 28 November 2019
Orbit: 508 x 3263 km, 33.3° (Epoch: 08 December)

Event Time Altitude Azimuth Distance (km) Brightness Sun altitude
Rises 21:22:01 0° 283° (WNW) 5,779 11.9 -48.5°
Reaches altitude 10° 21:27:25 10° 271° (W) 4,228 11.1 -49.6°
Enters shadow 21:35:04 24° 225° (SW) 2,479 9.9 -51.2°
Maximum altitude 21:35:15 24° 223° (SW) 2,459 - -51.2°
Drops below altitude 10° 21:40:32 10° 171° (S) 2,724 - -52.3°
Sets 21:43:12 0° 156° (SSE) 3,370 - -52.8°
